"2010-05-08 00:00:00",92620,6.761,117.5,10.14,1.249,10.55,102.9123,6.733,7.976,26.37,0,110.1,13.37,7.51,79.5
"2010-05-08 00:00:30",92621,7.233,117.2,7.605,1.398,9.93,102.9123,6.733,7.946,26,0,110.1,13.37,7.51,79.2
"2010-05-08 00:01:00",92622,6.643,108.5,4.995,0.699,6.873,102.9123,6.733,7.697,25.68,0,110.1,13.37,7.51,70.5
"2010-05-08 00:01:30",92623,7.224,119.2,6.149,1.121,9.09,102.9112,6.731,7.842,25.84,0,110.1,13.37,7.51,81.2
"2010-05-08 00:02:00",92624,7.563,113,10.41,1.283,9.67,102.9083,6.723,7.95,25.74,0,110.1,13.37,7.50,75.0
"2010-05-08 00:02:30",92625,7.71,109.7,9.87,1.142,9.97,102.9047,6.714,7.965,25.73,0,110.1,13.37,7.49,71.7
"2010-05-08 00:03:00",92626,7.496,124.7,7.432,1.019,10.62,102.8996,6.701,7.917,25.42,0,110.1,13.37,7.48,86.7
"2010-05-08 00:03:30",92627,6.531,133.9,7.888,1.456,9.71,102.8827,6.658,7.955,25.39,0,110.1,13.37,7.43,95.9
"2010-05-08 00:04:00",92628,4.876,131.2,5.844,1.496,7.386,102.8784,6.647,7.691,25.02,0,110.1,13.37,7.42,93.2
"2010-05-08 00:04:30",92629,3.711,122.6,3.517,0.214,6.557,102.8784,6.647,7.755,25.12,0,110.1,13.41,7.42,84.6
"2010-05-08 00:05:00",92630,4.52,117.6,6.472,1.218,10.03,102.8784,6.647,7.874,25.21,0,110.1,13.38,7.42,79.6
"2010-05-08 00:05:30",92631,4.412,108.3,9.96,1.407,8.93,102.8784,6.647,7.88,25.18,0,110.1,13.38,7.42,70.3
"2010-05-08 00:06:00",92632,6.414,109.8,6.073,1.23,8.72,102.8784,6.647,7.806,25.15,0,110.1,13.38,7.42,71.8
"2010-05-08 00:06:30",92633,7.781,118.5,6.391,1.02,10.06,102.8781,6.646,7.932,25.51,0,110.1,13.38,7.42,80.5
"2010-05-08 00:07:00",92634,7.398,115.7,6.644,1.177,9.81,102.8725,6.632,7.821,25.46,0,110.1,13.38,7.41,77.7
"2010-05-08 00:07:30",92635,5.37,109.8,5.572,0.742,6.759,102.8615,6.604,7.664,25.19,0,110.1,13.38,7.38,71.8
"2010-05-08 00:08:00",92636,6.372,118.7,6.533,1.059,8.83,102.8525,6.581,7.822,25.32,0,110.1,13.38,7.36,80.7
"2010-05-08 00:08:30",92637,6.16,125.7,7.517,1.204,9.66,102.8457,6.563,7.846,25.31,0,110.1,13.38,7.34,87.7
"2010-05-08 00:09:00",92638,5.066,125,5.305,0.899,6.915,102.8451,6.562,7.673,25.17,0,110.1,13.38,7.34,87.0
"2010-05-08 00:09:30",92639,5.672,118.2,5.886,1.323,8.91,102.8454,6.563,7.89,25.37,0,110.1,13.38,7.34,80.2
"2010-05-08 00:10:00",92640,5.64,119,6.104,1.259,9.86,102.8475,6.568,7.844,25.22,0,110.1,13.38,7.34,81.0
"2010-05-08 00:10:30",92641,4.562,113.1,5.154,0.931,6.303,102.8472,6.567,7.623,25.05,0,110.1,13.38,7.34,75.1
"2010-05-08 00:11:00",92642,5.85,113.9,9.56,1.255,7.812,102.8486,6.571,7.825,25.29,0,110.1,13.38,7.35,75.9
"2010-05-08 00:11:30",92643,7.195,122.7,7.195,1.176,10.08,102.8489,6.572,7.835,25.43,0,110.1,13.38,7.35,84.7
"2010-05-08 00:12:00",92644,6.305,122,7.441,1.371,8.77,102.8527,6.581,7.747,25.37,0,110.1,13.38,7.36,84.0
"2010-05-08 00:12:30",92645,6.861,128.5,8.64,1.123,9.81,102.8562,6.59,7.892,25.66,0,110.1,13.38,7.37,90.5
"2010-05-08 00:13:00",92646,7.264,128.9,6.43,1.327,9.84,102.8551,6.587,7.865,25.51,0,110.1,13.38,7.36,90.9
"2010-05-08 00:13:30",92647,6.716,126,8.2,1.214,8.63,102.843,6.557,7.598,25.2,0,110.1,13.38,7.33,88.0
"2010-05-08 00:14:00",92648,5.447,127.7,9.73,1.054,7.683,102.8369,6.541,7.757,25.46,0,110.1,13.38,7.32,89.7
"2010-05-08 00:14:30",92649,5.915,132.8,7.086,1.312,9.01,102.8328,6.53,7.785,25.63,0,110,13.37,7.31,94.8
"2010-05-08 00:15:00",92650,5.984,129.6,5.376,1.181,8.64,102.8357,6.538,7.853,25.71,0,110,13.38,7.31,91.6
"2010-05-08 00:15:30",92651,6.519,133.3,5.804,1.255,9.25,102.8374,6.542,7.796,25.56,0,110,13.38,7.32,95.3
"2010-05-08 00:16:00",92652,7.117,130.3,9.81,1.394,9.47,102.8406,6.55,7.734,25.34,0,110,13.38,7.33,92.3
"2010-05-08 00:16:30",92653,6.693,113.7,6.865,1.232,9.37,102.8426,6.555,7.811,25.45,0,110,13.38,7.33,75.7
"2010-05-08 00:17:00",92654,6.256,112.9,8.12,0.948,7.728,102.842,6.554,7.63,25.39,0,110,13.38,7.33,74.9
"2010-05-08 00:17:30",92655,6.339,114,8.6,1.44,9.41,102.8449,6.561,7.807,25.71,0,110,13.38,7.34,76.0
"2010-05-08 00:18:00",92656,5.872,107.9,8.08,1.398,9.95,102.8455,6.563,7.772,25.68,0,110.1,13.39,7.34,69.9
"2010-05-08 00:18:30",92657,4.765,122.6,8.93,1.406,9.35,102.8455,6.563,7.744,25.54,0,110.1,13.39,7.34,84.6
"2010-05-08 00:19:00",92658,6.508,111.3,12.49,1.114,8.87,102.8444,6.56,7.779,25.53,0,110.1,13.39,7.33,73.3
"2010-05-08 00:19:30",92659,6.432,99.4,10.02,1.174,8.46,102.843,6.556,7.63,25.73,0,110.1,13.39,7.33,61.4
"2010-05-08 00:20:00",92660,6.68,97.8,8.13,1.396,9.18,102.8371,6.541,7.771,26.86,0,110,13.39,7.32,59.8
"2010-05-08 00:20:30",92661,6.758,109.3,6.564,0.998,10.35,102.8373,6.542,7.759,27.38,0,110.1,13.39,7.32,71.3
"2010-05-08 00:21:00",92662,6.498,116.7,6.511,1.159,10.15,102.8385,6.545,7.735,26.88,0,110.1,13.39,7.32,78.7
"2010-05-08 00:21:30",92663,6.527,122.1,8.82,1.024,8.47,102.8382,6.544,7.631,26.34,0,110.1,13.39,7.32,84.1
"2010-05-08 00:22:00",92664,7.188,120.6,8.3,1.24,8.84,102.8385,6.545,7.769,26.38,0,110.1,13.39,7.32,82.6
"2010-05-08 00:22:30",92665,6.352,115.8,7.822,0.924,6.999,102.8376,6.543,7.618,26,0,110,13.39,7.32,77.8
"2010-05-08 00:23:00",92666,7.197,127.4,7.19,1.311,9.56,102.8359,6.538,7.716,25.78,0,110,13.39,7.31,89.4
"2010-05-08 00:23:30",92667,5.917,126,8.39,1.119,9.13,102.8351,6.536,7.773,25.77,0,110,13.4,7.31,88.0
"2010-05-08 00:24:00",92668,6.282,126.5,5.081,1.233,8.62,102.8351,6.536,7.65,25.54,0,110,13.4,7.31,88.5
"2010-05-08 00:24:30",92669,6.453,121.8,7.958,1.29,8.71,102.834,6.533,7.631,25.45,0,110,13.39,7.31,83.8
"2010-05-08 00:25:00",92670,5.366,118,6.019,1.075,7.787,102.8365,6.54,7.699,25.47,0,110,13.4,7.31,80.0
"2010-05-08 00:25:30",92671,6.073,117.5,6.924,1.47,8.27,102.8407,6.551,7.675,25.69,0,110,13.4,7.33,79.5
"2010-05-08 00:26:00",92672,5.275,112.9,5.321,1.437,7.987,102.8441,6.559,7.705,26.06,0,110,13.4,7.33,74.9
"2010-05-08 00:26:30",92673,7.246,119.1,5.415,1.114,10.37,102.8452,6.562,7.779,25.71,0,110,13.4,7.34,81.1
"2010-05-08 00:27:00",92674,7.288,111.8,6.981,1.282,9.5,102.8455,6.563,7.76,25.66,0,110,13.4,7.34,73.8
"2010-05-08 00:27:30",92675,8.13,112,6.425,1.289,9.98,102.8455,6.563,7.755,25.64,0,110,13.4,7.34,74.0
"2010-05-08 00:28:00",92676,7.3,105.6,6.418,1.149,8.47,102.8455,6.563,7.692,25.74,0,110,13.39,7.34,67.6
"2010-05-08 00:28:30",92677,7.735,109,6.176,1.351,8.66,102.8455,6.563,7.675,25.41,0,110,13.39,7.34,71.0
"2010-05-08 00:29:00",92678,7.589,111.5,4.757,1.09,8.59,102.8452,6.562,7.724,25.17,0,110,13.39,7.34,73.5
"2010-05-08 00:29:30",92679,7.544,110.8,5.549,1.298,9.01,102.8419,6.553,7.785,25.16,0,110,13.39,7.33,72.8
"2010-05-08 00:30:00",92680,7.914,111,5.986,1.115,9.4,102.8342,6.534,7.792,25.24,0,110,13.39,7.31,73.0
"2010-05-08 00:30:30",92681,7.864,111.4,6.514,1.232,9.85,102.8306,6.525,7.799,25.26,0,110,13.39,7.30,73.4
"2010-05-08 00:31:00",92682,7.77,108.6,6.36,1.269,8.71,102.826,6.513,7.607,25.04,0,110,13.39,7.29,70.6
"2010-05-08 00:31:30",92683,6.693,104.3,6.333,1.059,8.37,102.8142,6.483,7.708,25.03,0,110,13.39,7.26,66.3
"2010-05-08 00:32:00",92684,7.146,113.4,10.81,1.273,8.8,102.8116,6.476,7.703,25.05,0,110,13.39,7.25,75.4
"2010-05-08 00:32:30",92685,7.09,117.3,8.68,1.233,8.91,102.8116,6.476,7.756,25.29,0,110,13.39,7.25,79.3
"2010-05-08 00:33:00",92686,7.191,123.8,8.23,1.306,8.64,102.8116,6.476,7.693,25.19,0,110,13.39,7.25,85.8
"2010-05-08 00:33:30",92687,7.892,121.4,8.36,1.175,9.96,102.8116,6.476,7.759,25.2,0,110,13.39,7.25,83.4
"2010-05-08 00:34:00",92688,7.608,112,5.914,1.337,9.28,102.8111,6.475,7.755,25.23,0,110,13.4,7.25,74.0
"2010-05-08 00:34:30",92689,7.107,109.1,6.798,1.404,7.734,102.8029,6.454,7.571,25,0,110,13.39,7.23,71.1
"2010-05-08 00:35:00",92690,7.506,110.7,5.016,1.237,9.48,102.7877,6.415,7.775,25.31,0,110,13.4,7.19,72.7
"2010-05-08 00:35:30",92691,7.658,119.6,7.87,1.251,9.43,102.7778,6.39,7.702,25.27,0,110,13.4,7.16,81.6
"2010-05-08 00:36:00",92692,7.124,119,7.006,1.182,9,102.7778,6.39,7.663,25.18,0,110,13.4,7.16,81.0
"2010-05-08 00:36:30",92693,7.566,120.5,7.197,1.283,9.56,102.7778,6.39,7.714,25.19,0,110,13.4,7.16,82.5
"2010-05-08 00:37:00",92694,7.645,123,5.684,1.246,7.859,102.7778,6.39,7.606,25.06,0,110,13.4,7.16,85.0
"2010-05-08 00:37:30",92695,8.48,121.6,6.817,1.303,9.16,102.7792,6.393,7.664,25.3,0,110,13.4,7.17,83.6
"2010-05-08 00:38:00",92696,8.6,124.9,6.416,1.234,9.61,102.7761,6.386,7.665,25.44,0,110,13.4,7.16,86.9
"2010-05-08 00:38:30",92697,8.58,131.3,5.792,1.233,10.34,102.7595,6.343,7.679,25.18,0,110,13.4,7.12,93.3
"2010-05-08 00:39:00",92698,8.08,121.5,9.62,1.24,10.13,102.7511,6.322,7.638,25.06,0,110,13.4,7.10,83.5
"2010-05-08 00:39:30",92699,8.27,118.5,6.198,0.833,10.18,102.75,6.319,7.602,25.35,0,110,13.4,7.09,80.5
"2010-05-08 00:40:00",92700,7.138,112.5,5.387,1.19,7.507,102.7529,6.326,7.492,25.25,0,110,13.4,7.10,74.5
"2010-05-08 00:40:30",92701,7.547,112,7.751,1.084,7.929,102.7543,6.33,7.583,25.23,0,110,13.4,7.10,74.0
"2010-05-08 00:41:00",92702,8.39,115.8,5.698,1.166,9.8,102.7527,6.326,7.596,25.06,0,110,13.4,7.10,77.8
"2010-05-08 00:41:30",92703,8.56,116.5,7.336,1.378,10.17,102.7437,6.303,7.609,25.06,0,110,13.4,7.08,78.5
"2010-05-08 00:42:00",92704,9.3,115.4,5.503,1.285,10.09,102.7289,6.265,7.614,24.89,0,110,13.4,7.04,77.4
"2010-05-08 00:42:30",92705,9.22,116.2,9.56,1.007,9.7,102.7286,6.264,7.534,24.85,0,110,13.4,7.04,78.2
"2010-05-08 00:43:00",92706,7.556,112.8,5.236,0.945,7.281,102.7315,6.271,7.474,24.92,0,110,13.4,7.05,74.8
"2010-05-08 00:43:30",92707,8.43,116.6,8.97,1.134,9.97,102.7344,6.279,7.579,25.14,0,110,13.4,7.05,78.6
"2010-05-08 00:44:00",92708,8.48,110.2,5.484,1.149,10.08,102.7277,6.262,7.502,25.29,0,110,13.4,7.04,72.2
"2010-05-08 00:44:30",92709,8.32,107.5,7.116,1.185,9.81,102.7178,6.237,7.394,25.29,0,110,13.4,7.01,69.5
"2010-05-08 00:45:00",92710,7.593,109.5,7.585,1.258,9.34,102.7065,6.208,7.514,25.47,0,110,13.4,6.98,71.5
"2010-05-08 00:45:30",92711,8.31,115.7,4.836,0.982,9.77,102.7083,6.212,7.499,25.7,0,110,13.4,6.99,77.7
"2010-05-08 00:46:00",92712,8.23,110.8,7.33,1.131,8.18,102.7101,6.217,7.259,25.02,0,110,13.4,6.99,72.8
"2010-05-08 00:46:30",92713,8.59,113.7,6.395,1.239,9.62,102.7098,6.216,7.466,25.09,0,110,13.4,6.99,75.7
"2010-05-08 00:47:00",92714,8.67,115.2,6.853,1.04,10.23,102.7109,6.219,7.444,24.9,0,110,13.4,6.99,77.2
"2010-05-08 00:47:30",92715,8.02,113.9,6.407,1.258,8.97,102.7081,6.212,7.445,24.87,0,110,13.4,6.99,75.9
"2010-05-08 00:48:00",92716,8.33,118.4,5.895,1.255,9.79,102.6988,6.188,7.481,25.01,0,110,13.4,6.96,80.4
"2010-05-08 00:48:30",92717,8.94,120,5.66,1.183,9.85,102.6821,6.145,7.435,24.92,0,110,13.4,6.92,82.0
"2010-05-08 00:49:00",92718,7.971,116.9,5.115,1.29,8.28,102.677,6.132,7.313,24.8,0,110,13.4,6.91,78.9
"2010-05-08 00:49:30",92719,8.2,116.9,6.028,1.336,9.48,102.677,6.132,7.463,25.03,0,110,13.4,6.91,78.9
"2010-05-08 00:50:00",92720,8.36,112.7,6.672,1.255,9.58,102.677,6.132,7.453,25.07,0,110,13.4,6.91,74.7
"2010-05-08 00:50:30",92721,8.25,112,7.399,1.391,9.51,102.677,6.132,7.435,25.24,0,110,13.41,6.91,74.0
"2010-05-08 00:51:00",92722,9.13,120.6,4.726,1.07,9.81,102.677,6.132,7.384,25.25,0,110,13.41,6.91,82.6
"2010-05-08 00:51:30",92723,9.81,123.1,6.147,1.254,9.72,102.6765,6.131,7.343,24.94,0,110,13.41,6.90,85.1
"2010-05-08 00:52:00",92724,9.71,121.2,6.239,1.152,10.01,102.6742,6.125,7.41,24.77,0,110,13.41,6.90,83.2
"2010-05-08 00:52:30",92725,9.53,123.3,6.748,1.134,9.92,102.6615,6.093,7.327,24.44,0,110,13.41,6.87,85.3
"2010-05-08 00:53:00",92726,8.8,120.2,6.618,1.315,8.54,102.6446,6.049,7.241,24.32,0,110,13.41,6.82,82.2
"2010-05-08 00:53:30",92727,9.15,124.7,6.328,1.25,10.13,102.6432,6.046,7.371,24.32,0,110,13.41,6.82,86.7
"2010-05-08 00:54:00",92728,9.02,126.7,5.582,1.161,9.77,102.6432,6.046,7.363,24.37,0,110,13.41,6.82,88.7
"2010-05-08 00:54:30",92729,8.94,120.8,6.608,1.132,9.61,102.6432,6.046,7.317,24.36,0,110,13.41,6.82,82.8
"2010-05-08 00:55:00",92730,9.01,121.2,6.948,1.268,9.2,102.6432,6.046,7.335,24.4,0,110,13.41,6.82,83.2
"2010-05-08 00:55:30",92731,9.24,121.6,6.311,1.2,9.34,102.6418,6.042,7.25,24.28,0,110,13.41,6.82,83.6
"2010-05-08 00:56:00",92732,8.53,120.5,5.82,1.37,8.68,102.6305,6.013,7.231,24.33,0,110,13.41,6.79,82.5
"2010-05-08 00:56:30",92733,9.47,119.5,5.418,1.251,9.82,102.613,5.969,7.243,24.51,0,110,13.41,6.74,81.5
"2010-05-08 00:57:00",92734,9.21,118,5.353,1.377,9.46,102.6093,5.959,7.298,24.67,0,110,13.41,6.73,80.0
"2010-05-08 00:57:30",92735,9.31,119.9,5.036,0.903,10.75,102.6093,5.959,7.305,24.87,0,110,13.41,6.73,81.9
"2010-05-08 00:58:00",92736,9.04,120.3,6.128,1.147,9.93,102.6093,5.959,7.284,24.75,0,110,13.41,6.73,82.3
"2010-05-08 00:58:30",92737,8.09,110.4,5.827,1.161,7.72,102.6096,5.96,7.12,24.85,0,110,13.41,6.73,72.4
"2010-05-08 00:59:00",92738,8.43,116.7,6.556,1.272,9.67,102.6093,5.959,7.253,25.05,0,110,13.41,6.73,78.7
"2010-05-08 00:59:30",92739,8.85,116.2,6.131,1.178,10.04,102.6093,5.959,7.266,25.26,0,110,13.41,6.73,78.2
"2010-05-08 01:00:00",92740,8.82,118.6,6.537,1.181,9.8,102.6065,5.952,7.251,25.16,0,110,13.42,6.73,80.6
"2010-05-08 01:00:30",92741,8.59,123.5,5.731,1.285,9.73,102.5986,5.932,7.247,25.26,0,110,13.42,6.70,85.5
"2010-05-08 01:01:00",92742,8.58,123.1,6.194,1.109,9.75,102.5978,5.93,7.231,25.25,0,110,13.41,6.70,85.1
"2010-05-08 01:01:30",92743,8.12,120.2,6.761,1.175,8.59,102.5934,5.919,7.125,24.78,0,110,13.41,6.69,82.2
"2010-05-08 01:02:00",92744,8.18,119.2,6.509,1.294,9.13,102.5904,5.911,7.184,24.95,0,110,13.41,6.68,81.2
"2010-05-08 01:02:30",92745,8.44,122,6.373,1.129,10.17,102.591,5.913,7.196,24.76,0,110,13.41,6.69,84.0
"2010-05-08 01:03:00",92746,8.19,124.6,7.71,1.12,9.86,102.5934,5.919,7.132,24.62,0,110,13.41,6.69,86.6
"2010-05-08 01:03:30",92747,7.978,123.1,8.43,1.224,9.49,102.5942,5.921,7.216,24.7,0,110,13.41,6.69,85.1
"2010-05-08 01:04:00",92748,8.09,120.2,6.881,1.337,8.8,102.5983,5.931,7.072,24.67,0,109.9,13.41,6.70,82.2
"2010-05-08 01:04:30",92749,7.261,116.5,5.433,1.198,7.993,102.6006,5.937,7.131,24.68,0,110,13.41,6.71,78.5
"2010-05-08 01:05:00",92750,8.54,122.6,6.414,1.219,9.97,102.6012,5.939,7.192,24.75,0,109.9,13.41,6.71,84.6
"2010-05-08 01:05:30",92751,8.95,122.7,6.273,1.025,10.35,102.6061,5.951,7.191,24.56,0,109.9,13.41,6.72,84.7
"2010-05-08 01:06:00",92752,8.75,122.7,6.088,1.185,9.81,102.6052,5.949,7.162,24.51,0,109.9,13.42,6.72,84.7
"2010-05-08 01:06:30",92753,8.93,124.8,5.334,1.242,10.02,102.6076,5.955,7.168,24.58,0,109.9,13.42,6.73,86.8
"2010-05-08 01:07:00",92754,8.1,120.3,7.762,1.227,9.25,102.6034,5.944,7.115,24.83,0,109.9,13.42,6.72,82.3
"2010-05-08 01:07:30",92755,8.53,122.1,6.666,1.155,9.5,102.5969,5.928,7.066,24.92,0,109.9,13.42,6.70,84.1
"2010-05-08 01:08:00",92756,7.894,118.8,6.773,1.214,9.15,102.589,5.907,7.145,24.78,0,109.9,13.42,6.68,80.8
"2010-05-08 01:08:30",92757,8.98,123.6,5.748,1.155,9.96,102.5777,5.879,7.154,24.88,0,109.9,13.42,6.65,85.6
"2010-05-08 01:09:00",92758,8.89,122.8,6.308,1.171,9.48,102.5765,5.876,7.091,24.59,0,109.9,13.42,6.65,84.8
"2010-05-08 01:09:30",92759,9.06,125.1,4.59,0.914,10.48,102.5763,5.875,7.157,24.56,0,109.9,13.42,6.65,87.1
"2010-05-08 01:10:00",92760,7.944,123,7.353,1.145,8.62,102.5763,5.875,7.032,24.58,0,109.9,13.42,6.65,85.0
"2010-05-08 01:10:30",92761,8.13,124.9,6.118,1.252,9.91,102.5763,5.875,7.11,24.57,0,109.9,13.42,6.65,86.9
"2010-05-08 01:11:00",92762,7.991,122.8,6.58,1.243,9.44,102.5763,5.875,7.13,24.46,0,109.9,13.42,6.65,84.8
"2010-05-08 01:11:30",92763,8.99,126.1,4.487,0.786,10.95,102.5763,5.875,7.101,24.44,0,109.9,13.42,6.65,88.1
"2010-05-08 01:12:00",92764,8.36,119.1,5.884,1.208,9.16,102.5763,5.875,7.1,24.45,0,109.9,13.43,6.65,81.1
"2010-05-08 01:12:30",92765,9.28,124.4,5.028,0.826,10.66,102.5763,5.875,7.126,24.36,0,109.9,13.43,6.65,86.4
"2010-05-08 01:13:00",92766,8.83,124,6.227,1.326,9.6,102.5763,5.875,7.07,24.39,0,109.9,13.43,6.65,86.0
"2010-05-08 01:13:30",92767,8.71,123,6.377,1.22,9.31,102.5749,5.871,7.107,24.61,0,109.9,13.43,6.64,85.0
"2010-05-08 01:14:00",92768,9.65,125.6,5.348,0.77,10.24,102.5681,5.854,6.978,24.5,0,110,13.43,6.63,87.6
"2010-05-08 01:14:30",92769,8.97,122.4,6.165,1.172,9.97,102.5624,5.84,7.148,24.56,0,109.9,13.43,6.61,84.4
"2010-05-08 01:15:00",92770,8.67,122.2,6.657,1.172,9.03,102.561,5.836,7.069,24.37,0,109.9,13.43,6.61,84.2
"2010-05-08 01:15:30",92771,8.99,122.7,5.331,1.129,10.02,102.5562,5.824,7.059,24.37,0,109.9,13.43,6.60,84.7
"2010-05-08 01:16:00",92772,8.22,120.6,7.106,1.24,9.57,102.5486,5.804,7.048,24.41,0,109.9,13.43,6.58,82.6
"2010-05-08 01:16:30",92773,8.42,119.9,6.06,1.195,9.24,102.546,5.798,7.099,24.63,0,109.9,13.43,6.57,81.9
"2010-05-08 01:17:00",92774,9.02,124.6,6.256,1.153,9.63,102.5426,5.789,7.051,24.69,0,109.9,13.43,6.56,86.6
"2010-05-08 01:17:30",92775,8.93,126.1,6.318,1.23,9.42,102.5426,5.789,7.048,24.52,0,109.9,13.43,6.56,88.1
"2010-05-08 01:18:00",92776,8.58,125.6,6.99,1.217,9.15,102.5424,5.788,6.948,24.22,0,109.9,13.43,6.56,87.6
"2010-05-08 01:18:30",92777,8.39,123.3,6.371,1.3,9.39,102.5424,5.788,7.029,24.53,0,109.9,13.43,6.56,85.3
"2010-05-08 01:19:00",92778,8.98,126.5,5.222,1.143,10.11,102.5427,5.789,7.051,24.74,0,109.9,13.43,6.56,88.5
"2010-05-08 01:19:30",92779,9.13,125,5.698,1.082,10.04,102.545,5.795,7.027,24.55,0,109.9,13.42,6.57,87.0
"2010-05-08 01:20:00",92780,9.01,126.4,5.743,1.012,9.76,102.5453,5.796,6.975,24.32,0,109.9,13.43,6.57,88.4
"2010-05-08 01:20:30",92781,8.67,126.9,5.893,1.254,9.43,102.547,5.8,7.085,24.17,0,109.9,13.43,6.57,88.9
"2010-05-08 01:21:00",92782,7.768,122.6,5.019,0.945,7.456,102.547,5.8,6.91,23.96,0,109.9,13.43,6.57,84.6
"2010-05-08 01:21:30",92783,9,129.5,5.849,1.173,9.74,102.5487,5.805,7.035,24.1,0,109.9,13.43,6.58,91.5
"2010-05-08 01:22:00",92784,9.13,131.4,6.354,1.144,10.24,102.549,5.805,7.052,24.03,0,109.9,13.43,6.58,93.4
"2010-05-08 01:22:30",92785,9.48,134,3.126,0.813,11.32,102.5502,5.808,7.077,24.04,0,109.9,13.43,6.58,96.0
"2010-05-08 01:23:00",92786,8.95,130.9,5.683,1.094,9.98,102.5511,5.811,7.04,24.11,0,109.9,13.43,6.58,92.9
"2010-05-08 01:23:30",92787,8.32,127.5,6.595,1.257,8.97,102.5493,5.806,7.009,24.22,0,109.9,13.43,6.58,89.5
"2010-05-08 01:24:00",92788,8.28,125.8,6.004,1.218,8.67,102.5497,5.807,6.906,24.18,0,109.9,13.44,6.58,87.8
"2010-05-08 01:24:30",92789,8.71,129.5,5.8,1.096,10.43,102.5452,5.796,7.051,24.3,0,109.9,13.44,6.57,91.5
"2010-05-08 01:25:00",92790,8.4,129.2,6.05,1.165,10.13,102.5441,5.793,7.013,24.29,0,109.9,13.44,6.57,91.2
"2010-05-08 01:25:30",92791,9.23,131,4.337,0.542,11.39,102.539,5.78,7.099,24.25,0,109.9,13.44,6.55,93.0
"2010-05-08 01:26:00",92792,8.04,124.5,6.178,1.225,8.78,102.536,5.772,7.032,24.04,0,109.9,13.44,6.54,86.5
"2010-05-08 01:26:30",92793,8.1,126.2,5.928,1.205,8.37,102.5341,5.767,6.878,23.81,0,109.9,13.44,6.54,88.2
"2010-05-08 01:27:00",92794,7.875,125.2,5.934,1.181,8.83,102.5316,5.761,7.002,23.91,0,109.9,13.44,6.53,87.2
"2010-05-08 01:27:30",92795,8.7,127.2,5.656,1.186,10.08,102.5333,5.765,7.059,23.96,0,109.9,13.44,6.54,89.2
"2010-05-08 01:28:00",92796,9.14,128.3,4.455,0.872,11.37,102.5328,5.764,7.063,23.91,0,109.9,13.44,6.54,90.3
"2010-05-08 01:28:30",92797,9.13,124.4,5.452,0.989,10.76,102.5345,5.768,7.074,24.16,0,109.9,13.44,6.54,86.4
"2010-05-08 01:29:00",92798,8.73,125.5,5.545,1.149,9.78,102.5351,5.77,6.97,24.12,0,109.9,13.44,6.54,87.5
"2010-05-08 01:29:30",92799,8.45,120.8,6.932,1.213,8.29,102.5369,5.774,6.892,24.04,0,109.9,13.44,6.55,82.8
"2010-05-08 01:30:00",92800,7.781,119.5,7.394,1.244,8.41,102.5377,5.777,6.933,24.22,0,109.9,13.44,6.55,81.5
"2010-05-08 01:30:30",92801,8.34,123.9,7.091,1.263,9.27,102.5386,5.779,6.986,24.18,0,109.9,13.44,6.55,85.9
"2010-05-08 01:31:00",92802,9.1,129.2,3.998,0.781,11.49,102.5403,5.783,7.078,24.08,0,109.9,13.44,6.56,91.2
"2010-05-08 01:31:30",92803,9.09,128.5,3.894,0.634,11.16,102.5429,5.79,7.08,24.03,0,109.9,13.44,6.56,90.5
"2010-05-08 01:32:00",92804,7.739,121.5,6.486,1.299,9.12,102.5424,5.788,7.023,24.02,0,109.9,13.44,6.56,83.5
"2010-05-08 01:32:30",92805,7.46,117.7,6.139,1.161,7.671,102.5424,5.788,6.796,23.87,0,109.9,13.44,6.56,79.7
"2010-05-08 01:33:00",92806,7.899,119,6.393,1.24,8.53,102.5432,5.791,6.939,23.98,0,109.9,13.44,6.56,81.0
"2010-05-08 01:33:30",92807,8.24,119.7,6.454,1.195,9.57,102.5432,5.791,6.989,24.03,0,109.9,13.44,6.56,81.7
"2010-05-08 01:34:00",92808,9.06,121.4,4.538,0.96,10.9,102.5429,5.79,7.057,24.27,0,109.9,13.44,6.56,83.4
"2010-05-08 01:34:30",92809,9.15,121.1,5.286,0.969,11.03,102.5432,5.791,7.067,24.29,0,109.9,13.44,6.56,83.1
"2010-05-08 01:35:00",92810,9.16,120.1,4.673,0.96,10.63,102.5432,5.791,7.072,24.34,0,109.9,13.44,6.56,82.1
"2010-05-08 01:35:30",92811,7.664,113.7,5.911,1.078,7.42,102.5432,5.791,6.825,24.12,0,109.9,13.44,6.56,75.7
"2010-05-08 01:36:00",92812,8.16,114.1,6.627,1.272,8.42,102.5432,5.791,6.9,24.19,0,109.9,13.44,6.56,76.1
"2010-05-08 01:36:30",92813,8.23,114.4,6.042,1.276,8.43,102.5432,5.791,6.974,24.4,0,109.9,13.44,6.56,76.4
"2010-05-08 01:37:00",92814,8.84,116.2,6.545,1.194,10.12,102.5432,5.791,7.047,24.5,0,109.9,13.44,6.56,78.2
"2010-05-08 01:37:30",92815,9.48,118.7,4.086,0.674,11.27,102.5432,5.791,7.111,24.65,0,109.9,13.44,6.56,80.7
"2010-05-08 01:38:00",92816,8.66,117.2,5.875,1.191,10.2,102.5432,5.791,7.054,24.89,0,109.9,13.44,6.56,79.2
"2010-05-08 01:38:30",92817,8.58,119.7,5.878,1.195,9.38,102.5432,5.791,6.978,24.94,0,109.9,13.44,6.56,81.7
"2010-05-08 01:39:00",92818,8.06,109.1,4.33,0.745,6.521,102.5432,5.791,6.826,25.04,0,109.9,13.44,6.56,71.1
"2010-05-08 01:39:30",92819,9.96,119.9,6.476,0.918,10.49,102.5432,5.791,6.99,25.09,0,109.9,13.44,6.56,81.9
"2010-05-08 01:40:00",92820,9.81,116,4.294,0.782,10.98,102.543,5.79,7.073,25.78,0,109.9,13.44,6.56,78.0
"2010-05-08 01:40:30",92821,10.67,120.5,3.842,0.561,11.1,102.5348,5.769,7.085,25.58,0,109.9,13.44,6.54,82.5
"2010-05-08 01:41:00",92822,10.77,122,4.515,0.918,10.62,102.522,5.736,7.004,24.98,0,109.9,13.44,6.51,84.0
"2010-05-08 01:41:30",92823,9.63,113.5,5.767,1.191,8.72,102.5096,5.705,7.045,24.87,0,109.9,13.44,6.48,75.5
"2010-05-08 01:42:00",92824,9.92,112.9,5.588,1.194,7.824,102.5093,5.704,6.788,24.74,0,109.9,13.44,6.48,74.9
"2010-05-08 01:42:30",92825,10.54,116.6,6.027,1.319,8.96,102.509,5.703,6.958,24.52,0,109.9,13.44,6.48,78.6
"2010-05-08 01:43:00",92826,11.54,118.4,4.488,0.693,11.05,102.4975,5.674,7.034,24.6,0,109.9,13.45,6.45,80.4
"2010-05-08 01:43:30",92827,11.42,120.9,4.005,0.656,10.92,102.4802,5.63,7.003,24.3,0,109.9,13.45,6.40,82.9
"2010-05-08 01:44:00",92828,11.23,122.4,3.634,0.671,10.86,102.4754,5.617,7.011,23.97,0,109.9,13.45,6.39,84.4
"2010-05-08 01:44:30",92829,11.05,121.5,3.569,0.704,10.51,102.4754,5.617,6.973,24.05,0,109.9,13.44,6.39,83.5
"2010-05-08 01:45:00",92830,11.36,120,3.344,0.701,10.42,102.4743,5.614,6.942,23.94,0,109.9,13.44,6.39,82.0
"2010-05-08 01:45:30",92831,10.15,118.4,6.003,1.325,8.59,102.4672,5.596,6.747,23.78,0,109.9,13.44,6.37,80.4
"2010-05-08 01:46:00",92832,9.73,116.1,4.995,1.101,7.783,102.4494,5.551,6.756,23.8,0,109.9,13.44,6.32,78.1
"2010-05-08 01:46:30",92833,9.11,110.7,4.781,0.993,7.25,102.4415,5.531,6.748,24.07,0,109.9,13.45,6.30,72.7
"2010-05-08 01:47:00",92834,10.26,116.6,4.629,1.077,10.66,102.4415,5.531,6.846,24.67,0,109.9,13.45,6.30,78.6
"2010-05-08 01:47:30",92835,10.79,119.9,4.729,1.012,10.65,102.4415,5.531,6.856,24.32,0,109.9,13.45,6.30,81.9
"2010-05-08 01:48:00",92836,10.81,119.2,4.446,0.951,10.42,102.4415,5.531,6.824,24.14,0,109.9,13.45,6.30,81.2
"2010-05-08 01:48:30",92837,11.07,121.1,3.775,0.808,10.6,102.4404,5.528,6.87,24.3,0,109.9,13.45,6.30,83.1
"2010-05-08 01:49:00",92838,11.07,121.9,3.947,0.688,10.46,102.4245,5.487,6.858,24.58,0,109.9,13.45,6.26,83.9
"2010-05-08 01:49:30",92839,11.47,121.9,3.463,0.716,10.28,102.4101,5.451,6.843,24.68,0,109.9,13.45,6.22,83.9
"2010-05-08 01:50:00",92840,11.46,123.6,2.816,0.851,10.16,102.4076,5.444,6.854,24.78,0,109.9,13.45,6.22,85.6
"2010-05-08 01:50:30",92841,11.76,120.3,3.637,0.493,9.97,102.4076,5.444,6.799,24.59,0,109.9,13.44,6.22,82.3
"2010-05-08 01:51:00",92842,11.57,122.7,3.66,0.772,9.89,102.4076,5.444,6.805,24.56,0,109.9,13.44,6.22,84.7
"2010-05-08 01:51:30",92843,11.5,123.6,4.008,0.681,9.83,102.4076,5.444,6.801,24.5,0,109.9,13.44,6.22,85.6
"2010-05-08 01:52:00",92844,10.8,121.3,6.129,1.083,9.36,102.4062,5.44,6.714,24.4,0,109.9,13.44,6.21,83.3
"2010-05-08 01:52:30",92845,9.9,116.6,6.237,1.27,7.457,102.4002,5.425,6.533,24.36,0,109.9,13.44,6.20,78.6
"2010-05-08 01:53:00",92846,9.46,114.2,6.337,1.225,7.467,102.3918,5.404,6.599,24.59,0,109.9,13.44,6.17,76.2